Location: Newark
(40.3500°N, 15.2333°E)
Time: 15:27:08
(UTC+00:00)

Altair - Pass Details

Date: 27 January 2020
Orbit: 1502 x 1682 km, 47.2° (Epoch: 24 February)

Event Time Altitude Azimuth Distance (km) Brightness Sun altitude
Rises 11:07:23 0° 289° (WNW) 4,931 10.0 31.1°
Reaches altitude 10° 11:10:37 10° 293° (WNW) 3,947 9.5 31.1°
Maximum altitude 11:20:45 66° 15° (NNE) 1,797 8.1 31.1°
Drops below altitude 10° 11:30:44 10° 98° (E) 3,885 9.7 31.0°
Sets 11:33:52 0° 101° (E) 4,850 10.2 30.9°
